www.pogodaiklimat.ru

Погода и климат >> Архив погоды >> Россия >> Якутия >> Оймякон


АРХИВ ПОГОДЫ в Оймяконе

Время (UTC), дата Ветер
(напр.,м/с)
 
Видим.   Явления Облачность Т
(С)
Тd
(С)
f
(%)
Тe
(С)
Тes
(С)
Комфортность P
(гПа)
Po
(гПа)
Тmin
(С)
Tmax
(С)
R
(мм)
R24
(мм)
S
(см)
12 15.01 штиль 0 10 км дым ясно -53.6 -56.3 72 -54 -54 опасность
обморожения
1047.2 934.2
15 15.01 штиль 0 10 км дым 10/0
[Ci fib]
-52.2 -54.4 77 -52 -52 опасность
обморожения
1046.6 934.4
18 15.01 штиль 0 10 км дым 10/0
[Ci fib]
-50.8 -52.4 83 -51 -51 опасность
обморожения
1046.9 935.1
21 15.01 штиль 0 10 км дым 6/0
[Ci fib]
-51.2 -52.4 87 -51 -51 опасность
обморожения
1047.5 935.6 -53.7 22
00 16.01 штиль 0 20 км дым 4/0
[Ci fib]
-52.2 -54.0 81 -52 -52 опасность
обморожения
1049.7 954.0
03 16.01 СВ 1 50 км дым 3/0
[Ci fib]
-51.0 -52.4 85 -57 -57 опасность
обморожения
1049.8 937.6
06 16.01 штиль 0 50 км дым 4/0
[Ci fib]
-50.6 -52.4 81 -51 -51 опасность
обморожения
1050.5 938.5
09 16.01 штиль 0 50 км дым 3/0
[Ci fib]
-51.8 -54.0 77 -52 -52 опасность
обморожения
1052.0 939.2 -50.5
12 16.01 штиль 0 50 км дым 3/0
[Ci fib]
-52.5 -54.0 84 -53 -53 опасность
обморожения
1052.4 939.3
15 16.01 штиль 0 50 км дым 3/0
[Ci fib]
-52.3 -54.0 82 -52 -52 опасность
обморожения
1051.7 938.6
18 16.01 З 1 20 км дым 3/0
[Ci fib]
-52.7 -54.0 86 -59 -59 опасность
обморожения
1050.9 937.9
21 16.01 штиль 0 20 км дым ясно -54.1 -56.3 76 -54 -54 опасность
обморожения
1051.3 937.5 -54.1 22
00 17.01 штиль 0 10 км дым ясно -54.3 -56.3 78 -54 -54 опасность
обморожения
1050.9 937.0 -54.3
03 17.01 штиль 0 50 км дым ясно -51.6 -54.0 75 -52 -51 опасность
обморожения
1047.4 935.3
06 17.01 штиль 0 50 км дым ясно -52.2 -54.0 81 -52 -52 опасность
обморожения
1046.4 934.2
09 17.01 штиль 0 50 км дым ясно -53.8 -56.3 74 -54 -54 опасность
обморожения
1046.8 933.5 -51.5
12 17.01 штиль 0 50 км дым ясно -54.3 -56.3 78 -54 -54 опасность
обморожения
1046.1 932.6
15 17.01 штиль 0 50 км дым ясно -55.1 -58.5 66 -55 -55 опасность
обморожения
1044.9 931.4
18 17.01 штиль 0 50 км дым ясно -55.1 -58.1 69 -55 -55 опасность
обморожения
1030.5 930.5
21 17.01 штиль 0 50 км дым 3/0
[Ci fib]
-54.1 -55.8 81 -54 -54 опасность
обморожения
1042.8 930.0 -55.1 22
00 18.01 штиль 0 10 км дым 3/0
[Ci fib]
-54.0 -56.3 76 -54 -54 опасность
обморожения
1042.6 929.8
03 18.01 штиль 0 10 км дым 3/0
[Ci fib]
-52.7 -54.4 82 -53 -52 опасность
обморожения
1041.0 929.1
06 18.01 штиль 0 20 км дым 3/0
[Ci fib]
-53.0 -56.3 67 -53 -53 опасность
обморожения
1040.7 928.6
09 18.01 штиль 0 20 км дым ясно -53.9 -56.3 75 -54 -54 опасность
обморожения
1041.8 929.1 -52.6
12 18.01 штиль 0 50 км дым ясно -54.4 -56.3 79 -54 -54 опасность
обморожения
1042.4 929.4
15 18.01 штиль 0 50 км дым ясно -54.1 -56.3 76 -54 -54 опасность
обморожения
1042.0 929.3
18 18.01 штиль 0 4000 м дымка ясно -54.1 -56.3 76 -54 -54 опасность
обморожения
1042.6 929.8
21 18.01 штиль 0 10 км дым ясно -54.5 -56.3 80 -55 -55 опасность
обморожения
1043.1 930.0 -54.6 22
00 19.01 штиль 0 10 км дым 3/0
[Ci fib]
-53.8 -56.3 74 -54 -54 опасность
обморожения
1043.4 930.5
03 19.01 штиль 0 4000 м дымка 3/0
[Ci fib]
-52.3 -54.4 78 -52 -52 опасность
обморожения
1042.2 930.2
06 19.01 штиль 0 20 км дым 1/0
[Ci fib]
-51.9 -54.4 74 -52 -52 опасность
обморожения
1042.4 930.6
09 19.01 штиль 0 4000 м дымка ясно -52.8 -54.4 83 -53 -53 опасность
обморожения
1043.7 931.3 -51.6
12 19.01 штиль 0 4000 м слаб. снег 10/0
[Cs]
-51.0 -53.0 79 -51 -51 опасность
обморожения
1042.4 931.1
15 19.01 штиль 0 10 км слаб. снег 10/0
[Cs]
-48.8 -51.1 77 -49 -49 опасность
обморожения
1041.1 930.8
18 19.01 СВ 1 10 км слаб. снег 10/0
[Ac trans Cs]
-48.9 -51.1 78 -55 -55 опасность
обморожения
1041.1 930.8
21 19.01 СВ 1 10 км слаб. снег 10/0
[Ac trans Cs]
-51.5 -54.0 74 -58 -58 опасность
обморожения
1042.4 930.8 -52.8 0.2 22
00 20.01 штиль 0 10 км дым {снег} 5/0
[Cs]
-52.4 -54.0 83 -52 -52 опасность
обморожения
1041.9 929.9
03 20.01 штиль 0 50 км слаб. снег 10/0
[Cs]
-49.8 -51.1 86 -50 -50 опасность
обморожения
1039.9 929.3
06 20.01 С 1 50 км в посл. час снег 10/0
[Ac trans Cs]
-46.8 -48.9 79 -53 -53 опасность
обморожения
1036.5 927.6
09 20.01 штиль 0 50 км слаб. снег 10/0
[Ac trans Cs]
-46.1 -48.0 81 -46 -46 опасность
обморожения
1035.5 927.2 -45.8 0.0
12 20.01 СВ 2 20 км дым {снег} 4/0
[Ci fib]
-45.9 -48.0 79 -56 -56 опасность
обморожения
1035.1 926.8
15 20.01 штиль 0 20 км слаб. снег 9/0
[Ac trans]
-44.6 -46.3 83 -45 -45 опасность
обморожения
1033.4 936.0
18 20.01 СВ 1 20 км слаб. снег 9/0
[Ac trans]
-43.0 -44.9 81 -49 -49 опасность
обморожения
1032.4 925.7
21 20.01 СВ 1 20 км слаб. снег 10/0
[Ac trans Ci fib]
-42.8 -44.9 80 -48 -48 опасность
обморожения
1031.9 925.3 -46.1 0.0 23
00 21.01 СВ 1 20 км дым {снег} 10/0
[Ac trans Cs]
-43.6 -45.6 80 -49 -49 опасность
обморожения
1032.9 925.9
03 21.01 СВ 1 4000 м слаб. снег 10/0
[Ac trans Cs]
-41.1 -43.1 81 -46 -46 опасность
обморожения
1031.3 925.5
06 21.01 СВ 2 20 км слаб. снег 10/0
[Ac As Cs]
-39.2 -41.1 82 -48 -48 опасность
обморожения
1030.0 925.3
09 21.01 штиль 0 50 км дым {снег} 4/0
[Ac trans Ci fib]
-41.6 -43.7 80 -42 -42 опасность
обморожения
1032.3 926.3 -39.0 0.7
12 21.01 штиль 0 50 км дым {снег} 8/0
[Ac trans Cs]
-40.1 -42.1 81 -40 -40 опасность
обморожения
1032.4 927.0
15 21.01 ЮЗ 1 50 км дым 4/0
[Ci fib]
-40.9 -43.1 79 -46 -46 опасность
обморожения
1033.9 927.9
18 21.01 СВ 1 20 км дым 9/0
[Cs]
-40.8 -43.1 78 -46 -46 опасность
обморожения
1036.2 930.0
21 21.01 штиль 0 50 км дым 9/0
[Ac trans Ci fib]
-39.9 -42.1 79 -40 -40 опасность
обморожения
1037.5 931.5 -42.6 24
00 22.01 штиль 0 50 км дым 10/0
[Ac trans Ci fib]
-40.1 -42.1 81 -40 -40 опасность
обморожения
1039.4 933.3
03 22.01 СВ 1 50 км дым 10/10 1020 м
[St]
-38.2 -40.3 80 -43 -43 опасность
обморожения
1039.4 934.2
06 22.01 С 1 50 км 10/10 1050 м
[St]
-36.7 -39.1 78 -42 -42 опасность
обморожения
1039.9 935.2
09 22.01 СВ 1 50 км слаб. снег 10/5 1000 м
[Sc Ac trans Cs]
-35.0 -37.4 79 -40 -40 опасность
обморожения
1040.3 936.2 -35.0 0.0

 

Местоположение метеостанции Оймякон (Якутия, Россия): широта 63.25 долгота 143.10 высота над уровнем моря 740 м.

В архиве по умолчанию представлена погода в Оймяконе за последнюю неделю. Архивные данные за месяц целиком и за предыдущие месяцы, начиная с января 2011 года, Вы можете получить, выбрав интересующий диапазон дат из раскрывающегося списка и нажав кнопку "Ввод!".


*Определитесь, кто Вы:
робот инопланетянин человек

Внимание! Время в таблицах - всемирное. Для получения местного времени необходимо прибавить поправку, которая равна 10 ч.

Смотрите также архив погоды в соседних городах и на ближайших метеорологических станциях:

Погода в Агаякане (Якутия, Россия) (71 км)
Погода в Юртах (Якутия, Россия) (110 км)
Погода в Делянкире (Якутия, Россия) (140 км)
Погода в Усть-Нере (Якутия, Россия) (142 км)
Погода в Восточной (Якутия, Россия) (175 км)
Погода в Сусумане (Магаданская область, Россия) (258 км)
Погода в Колымской (Магаданская область, Россия) (278 км)
Погода в Уеге (Хабаровский край, Россия) (282 км)
Погода в Теплом Ключе (Якутия, Россия) (322 км)
Погода в Ягодной (Магаданская область, Россия) (340 км)

Пояснения к столбцам:

Ветер - указаны скорость ветра в м/с - средняя за 10 мин, порывы в срок и между сроками (в фигурных скобках) и направление, откуда дует ветер: С - северный, СВ - северо-восточный, В - восточный, ЮВ - юго-восточный, Ю - южный, ЮЗ - юго-западный, З - западный, СЗ - северо-западный.
Видимость - горизонтальная дальность видимости в метрах или километрах. При видимости от 1 до 10 км при отсутствии осадков обычно наблюдается дымка, при ухудшении видимости до 1 км и менее - туман. В сухую погоду видимость может ухудшаться дымом, пылью или мглою.
Явления - указаны атмосферные явления, наблюдавшиеся в срок или в последний час перед сроком; фигурными скобками обозначены явления, наблюдавшиеся между сроками (за 1-3 часа до срока); квадратными скобками обозначены град или гололедные отложения с указанием их диаметра в мм.
Облачность - указаны через наклонную черту общая и нижняя облачность в баллах и высота нижней границы облаков в метрах; квадратными скобками обозначены формы облаков: Ci - перистые, Cs - перисто-слоистые, Cc - перисто-кучевые, Ac - высококучевые, As - высокослоистые, Sc - слоисто-кучевые, Ns - слоисто-дождевые, Cu - кучевые, Cb - кучево-дождевые. Подробнее классификацию облаков см. в Атласе облаков (PDF).
T - Температура воздуха - температура, измеренная на высоте 2 м над землей.
Td - Температура точки росы - температура, при понижении до которой содержащийся в воздухе водяной пар достигнет насыщения.
f - Относительная влажность воздуха - влажноcть воздуха, измеренная на высоте 2 м над землей.
Te - Эффективная температура - температура, которую ощущает одетый по сезону человек в тени. Характеристика душности погоды. При расчете учитывается влияние влажности воздуха и скорости ветра на теплоощущения человека.
Tes - Эффективная температура на солнце - температура, которую ощущает человек, с поправкой на солнечный нагрев. Характеристика знойности погоды. Зависит от высоты солнца над горизонтом, облачности и скорости ветра. Ночью, в пасмурную погоду, а также при ветре 12 м/с и более поправка равна нулю.
P - Атмосферное давление - приведенное к уровню моря атмосферное давление.
Po - Атмосферное давление - измеренное на уровне метеостанции атмосферное давление.
Tmin - Минимальная температура - минимум температуры воздуха на высоте 2 м над землей.
Tmax - Максимальная температура - максимум температуры воздуха на высоте 2 м над землей.
R - Количество осадков - Количество выпавших осадков за период времени, мм. При наведении курсора мыши на число - период времени, за который выпало указанное количество осадков.
R24 - Количество осадков - Количество выпавших осадков за 24 часа, мм.
S - Снежный покров - Высота снежного покрова, см. При наведении курсора мыши на число - состояние снежного покрова и степень покрытия местности в баллах.